Regional Weather Roundup
Issued by NWS

Home | Current Version | Previous Version | Text Only | Print | Product List | Glossary Off
Versions: 1 2 3 4 5 6 7 8 9 10 11 12 13 14 15 16 17 18 19 20 21 22 23 24 25 26 27 28 29 30 31 32 33 34 35 36 37 38 39 40 41 42 43 44 45 46 47 48 49 50

000
ASUS43 KOAX 210302
RWRNE

WEATHER ROUNDUP FOR NEBRASKA
NATIONAL WEATHER SERVICE OMAHA NE
1000 PM CDT SAT SEP 20 2014

NOTES: SATELLITE DATA IS BEING USED TO AUGMENT CLOUD COVER ABOVE
       12000 FEET.
       "FAIR" INDICATES FEW OR NO CLOUDS BELOW 12,000 FEET WITH NO
       SIGNIFICANT WEATHER AND/OR OBSTRUCTIONS TO VISIBILITY.

  * THESE STATIONS DO NOT REPORT WEATHER SUCH AS RAIN...SNOW OR FOG.

NEZ001>004-019>022-054>056-210400-
NEBRASKA PANHANDLE

CITY           SKY/WX    TMP DP  RH WIND       PRES   REMARKS
SCOTTSBLUFF    CLEAR     63  41  44 NE9       30.26R
ALLIANCE       CLEAR     56  41  57 NE10      30.25R
CHADRON        CLEAR     55  41  59 E3        30.24R
KIMBALL        CLEAR     60  42  52 N7        30.28R
SIDNEY         CLEAR     64  43  46 NE9       30.27R
$$

NEZ057>060-069>072-079>082-210400-
SOUTHWEST NEBRASKA

CITY           SKY/WX    TMP DP  RH WIND       PRES   REMARKS
NORTH PLATTE   CLEAR     65  45  48 N12       30.17R
IMPERIAL       CLEAR     67  48  50 NE10      30.19R
LEXINGTON      CLEAR     62  52  69 W3        30.14R
MCCOOK         CLEAR     69  51  52 N14       30.14R
OGALLALA       CLEAR     65  47  53 NE5       30.20R
$$

NEZ005>010-023>029-035>040-094-210400-
NORTH CENTRAL NEBRASKA

CITY           SKY/WX    TMP DP  RH WIND       PRES   REMARKS
VALENTINE      CLEAR     58  41  53 NW6       30.17R
AINSWORTH      CLEAR     60  42  52 NW7       30.17R
BROKEN BOW     CLEAR     64  46  52 N12       30.14R
O`NEILL        CLEAR     61  47  59 NW9       30.11R
ORD            CLEAR     60  48  64 NW9       30.10R
THEDFORD       CLEAR     63  43  48 N7        30.20R
$$

NEZ041-046>049-061>064-073>077-083>087-210400-
SOUTH CENTRAL NEBRASKA

CITY           SKY/WX    TMP DP  RH WIND       PRES   REMARKS
GRAND ISLAND   CLEAR     69  50  50 N12       30.10R
AURORA         CLEAR     67  50  54 N9        30.08R
HASTINGS       CLEAR     67  53  61 N3        30.09R
HEBRON         CLEAR     62  57  82 CALM      30.05R
HOLDREGE       CLEAR     64  52  66 CALM      30.12R
KEARNEY *      CLEAR     66  52  59 NW7       30.12R
YORK           CLEAR     66  55  68 N9G20     30.07R
$$

NEZ011>018-030>034-042>045-210400-
NORTHEAST NEBRASKA

CITY           SKY/WX    TMP DP  RH WIND       PRES   REMARKS
NORFOLK        CLEAR     65  50  58 NW7       30.06R
ALBION         CLEAR     65  47  50 N7        30.09R
BLAIR          CLEAR     72  53  51 NW17G23   30.01R
COLUMBUS *     CLEAR     66  50  55 NW8       30.06R
FREMONT        CLEAR     71  53  52 NW12G17   30.03R
TEKAMAH        CLEAR     72  52  49 N15       30.01R
WAYNE          CLEAR     61  51  71 NW5       30.05R
$$

NEZ050>053-065>068-078-088>093-210400-
SOUTHEAST NEBRASKA

CITY           SKY/WX    TMP DP  RH WIND       PRES   REMARKS
LINCOLN        CLEAR     71  56  58 N6        30.03R
OMAHA EPPLEY   PTCLDY    73  54  51 NW14      29.99R
BEATRICE       CLEAR     66  56  71 W5        30.02R
FALLS CITY     CLEAR     71  69  93 W8        29.98R
NEBRASKA CITY    N/A     69  54  58 W9        29.99R
PLATTSMOUTH    CLEAR     68  57  68 W7        29.99R
$$

NEZ044-045-051>053-067-210400-
OMAHA AREA

CITY           SKY/WX    TMP DP  RH WIND       PRES   REMARKS
OMAHA EPPLEY   PTCLDY    73  54  51 NW14      29.99R
BLAIR          CLEAR     72  53  51 NW17G23   30.01R
FREMONT        CLEAR     71  53  52 NW12G17   30.03R
MILLARD        CLEAR     73  59  61 NW7       29.99R
OFFUTT AFB     CLEAR     66  64  91 NW7       29.98R
PLATTSMOUTH    CLEAR     68  57  68 W7        29.99R
WAHOO          FAIR      69  54  58 NW8       30.02R
$$



USA.gov is the U.S. government's official web portal to all federal, state and local government web resources and services.